Location: Camp Creek
(33.9000°N, 111.8167°W)
Time: 19:17:40
(UTC-07:00)

DELTA 2 R/B (1) - Visible Passes

Search period start: 01 August 2015 00:00
Search period end: 11 August 2015 00:00
Orbit: 792 x 802 km, 39.6° (Epoch: 01 August)

Date Brightness Start Highest point End Pass type
(mag) Time Alt. Az. Time Alt. Az. Time Alt. Az.
01 Aug 5.9 04:46:41 10° SSE 04:48:33 12° SE 04:50:42 10° ESE visible
02 Aug 6.0 04:17:00 10° SSE 04:17:52 10° SE 04:19:03 10° SE visible
04 Aug 4.5 04:57:06 10° SW 05:02:16 40° SSE 05:07:29 10° ENE visible
05 Aug 4.5 04:27:43 16° SSW 04:31:34 37° SSE 04:36:42 10° E visible
06 Aug 4.6 03:58:42 25° S 04:00:52 34° SE 04:05:54 10° E visible
07 Aug 4.6 03:29:37 31° SSE 03:30:10 31° SE 03:35:04 10° E visible
07 Aug 3.7 05:10:46 10° WSW 05:16:23 81° NNW 05:21:59 10° ENE visible
08 Aug 5.0 03:00:30 27° SE 03:00:30 27° SE 03:04:14 10° E visible
08 Aug 3.6 04:41:16 17° WSW 04:45:37 86° NNW 04:51:15 10° ENE visible
09 Aug 5.6 02:31:20 19° ESE 02:31:20 19° ESE 02:33:23 10° E visible
09 Aug 3.5 04:12:06 31° WSW 04:14:53 89° SSE 04:20:30 10° ENE visible
10 Aug 6.1 02:02:08 12° E 02:02:08 12° E 02:02:31 10° E visible
10 Aug 3.5 03:42:55 56° WSW 03:44:09 84° SSE 03:49:46 10° ENE visible
